• In Hungary
  • List of Countries
  • For 7 days
  • Water Temperature
  • Satellite Maps
  • Weather Map
  • News
  • Weather Widgets
  • user-avatar
    Login

    Hourly Weather Samarta

    Today, 23 September, Sunday

    Time Temperature Precipitation Wind Pressure Humidity
    00:00 +6°C° 0 mm 1 mps 692 mmHg 89%
    01:00 +5°C° 0 mm 1 mps 692 mmHg 90%
    02:00 +5°C° 0 mm 1 mps 692 mmHg 91%
    03:00 +5°C° 0 mm 1 mps 692 mmHg 92%
    04:00 +4°C° 0 mm 1 mps 692 mmHg 92%
    05:00 +4°C° 0 mm 0 mps 692 mmHg 90%
    06:00 +4°C° 0 mm 0 mps 692 mmHg 87%
    07:00 +7°C° 0 mm 1 mps 692 mmHg 83%
    08:00 +9°C° 0 mm 1 mps 692 mmHg 76%
    09:00 +11°C° 0 mm 1 mps 692 mmHg 68%
    10:00 +13°C° 0 mm 1 mps 692 mmHg 60%
    11:00 +13°C° 0.1 mm 1 mps 692 mmHg 57%
    12:00 +14°C° 0.1 mm 1 mps 692 mmHg 54%
    13:00 +15°C° 0 mm 1 mps 691 mmHg 50%
    14:00 +14°C° 0 mm 1 mps 691 mmHg 51%
    15:00 +14°C° 0 mm 1 mps 691 mmHg 52%
    16:00 +12°C° 0 mm 0 mps 690 mmHg 53%
    17:00 +10°C° 0 mm 0 mps 690 mmHg 61%
    18:00 +8°C° 0 mm 0 mps 690 mmHg 68%
    19:00 +6°C° 0 mm 0 mps 690 mmHg 76%
    20:00 +7°C° 0 mm 1 mps 690 mmHg 78%
    21:00 +6°C° 0 mm 1 mps 690 mmHg 81%
    22:00 +6°C° 0 mm 1 mps 690 mmHg 84%
    23:00 +5°C° 0 mm 1 mps 690 mmHg 85%

    Tomorrow, 24 September, Monday

    Time Temperature Precipitation Wind Pressure Humidity
    00:00 +5°C° 0 mm 1 mps 690 mmHg 87%
    01:00 +5°C° 0 mm 1 mps 690 mmHg 89%
    02:00 +4°C° 0 mm 1 mps 690 mmHg 90%
    03:00 +4°C° 0 mm 1 mps 690 mmHg 90%
    04:00 +4°C° 0 mm 1 mps 690 mmHg 91%
    05:00 +4°C° 0 mm 1 mps 690 mmHg 88%
    06:00 +5°C° 0 mm 1 mps 690 mmHg 85%
    07:00 +6°C° 0 mm 1 mps 690 mmHg 82%
    08:00 +8°C° 0 mm 1 mps 690 mmHg 73%
    09:00 +11°C° 0 mm 1 mps 690 mmHg 64%
    10:00 +13°C° 0 mm 1 mps 689 mmHg 55%
    11:00 +14°C° 0 mm 1 mps 689 mmHg 50%
    12:00 +15°C° 0 mm 1 mps 689 mmHg 45%
    13:00 +16°C° 0 mm 1 mps 689 mmHg 40%
    14:00 +16°C° 0 mm 1 mps 689 mmHg 43%
    15:00 +15°C° 0 mm 1 mps 688 mmHg 45%
    16:00 +14°C° 0 mm 0 mps 688 mmHg 48%
    17:00 +13°C° 0 mm 1 mps 688 mmHg 53%
    18:00 +11°C° 0 mm 1 mps 688 mmHg 59%
    19:00 +9°C° 0 mm 1 mps 687 mmHg 64%
    20:00 +8°C° 0 mm 1 mps 687 mmHg 66%
    21:00 +8°C° 0 mm 1 mps 687 mmHg 69%
    22:00 +7°C° 0 mm 1 mps 687 mmHg 71%
    23:00 +7°C° 0 mm 1 mps 687 mmHg 74%

    Day after tomorrow, 25 September, Tuesday

    Time Temperature Precipitation Wind Pressure Humidity
    00:00 +6°C° 0 mm 1 mps 687 mmHg 77%
    01:00 +6°C° 0 mm 1 mps 687 mmHg 79%
    02:00 +6°C° 0 mm 1 mps 687 mmHg 81%
    03:00 +5°C° 0 mm 1 mps 687 mmHg 83%
    04:00 +5°C° 0 mm 1 mps 687 mmHg 86%
    05:00 +5°C° 0 mm 0 mps 687 mmHg 83%
    06:00 +5°C° 0 mm 0 mps 688 mmHg 80%
    07:00 +6°C° 0 mm 0 mps 688 mmHg 78%
    08:00 +9°C° 0 mm 0 mps 688 mmHg 70%
    09:00 +11°C° 0 mm 0 mps 688 mmHg 61%
    10:00 +14°C° 0 mm 0 mps 688 mmHg 53%
    11:00 +15°C° 0 mm 0 mps 688 mmHg 50%
    12:00 +16°C° 0 mm 0 mps 688 mmHg 47%
    13:00 +17°C° 0 mm 0 mps 687 mmHg 44%
    14:00 +16°C° 0 mm 0 mps 687 mmHg 46%
    15:00 +16°C° 0 mm 0 mps 687 mmHg 48%
    16:00 +15°C° 0 mm 0 mps 687 mmHg 50%
    17:00 +13°C° 0 mm 0 mps 686 mmHg 57%
    18:00 +11°C° 0 mm 0 mps 686 mmHg 63%
    19:00 +8°C° 0 mm 0 mps 686 mmHg 69%
    20:00 +8°C° 0 mm 0 mps 686 mmHg 72%
    21:00 +7°C° 0 mm 0 mps 686 mmHg 75%
    22:00 +7°C° 0 mm 0 mps 686 mmHg 78%
    23:00 +6°C° 0 mm 0 mps 686 mmHg 80%

    26 September, Wednesday

    Time Temperature Precipitation Wind Pressure Humidity
    00:00 +6°C° 0 mm 0 mps 686 mmHg 82%
    01:00 +6°C° 0 mm 0 mps 686 mmHg 85%
    02:00 +5°C° 0 mm 0 mps 686 mmHg 86%
    03:00 +5°C° 0 mm 0 mps 686 mmHg 87%
    04:00 +5°C° 0 mm 0 mps 686 mmHg 88%
    05:00 +6°C° 0 mm 0 mps 686 mmHg 85%
    06:00 +6°C° 0 mm 0 mps 686 mmHg 82%
    07:00 +7°C° 0 mm 0 mps 686 mmHg 79%
    08:00 +10°C° 0 mm 0 mps 687 mmHg 71%
    09:00 +12°C° 0 mm 0 mps 687 mmHg 63%
    10:00 +15°C° 0 mm 0 mps 687 mmHg 55%
    11:00 +16°C° 0 mm 0 mps 687 mmHg 51%
    12:00 +18°C° 0 mm 1 mps 686 mmHg 48%
    13:00 +19°C° 0 mm 1 mps 686 mmHg 45%
    14:00 +19°C° 0 mm 1 mps 686 mmHg 47%
    15:00 +18°C° 0 mm 1 mps 685 mmHg 49%
    16:00 +16°C° 0 mm 1 mps 685 mmHg 52%
    17:00 +14°C° 0 mm 1 mps 685 mmHg 58%
    18:00 +11°C° 0 mm 0 mps 685 mmHg 65%
    19:00 +9°C° 0 mm 0 mps 685 mmHg 71%
    20:00 +8°C° 0 mm 0 mps 685 mmHg 73%
    21:00 +8°C° 0 mm 0 mps 685 mmHg 75%
    22:00 +7°C° 0 mm 0 mps 684 mmHg 78%
    23:00 +7°C° 0 mm 0 mps 684 mmHg 78%

    27 September, Thursday

    Time Temperature Precipitation Wind Pressure Humidity
    00:00 +7°C° 0 mm 0 mps 684 mmHg 79%
    01:00 +7°C° 0 mm 0 mps 684 mmHg 80%
    02:00 +8°C° 0.1 mm 1 mps 684 mmHg 81%
    03:00 +8°C° 0.1 mm 1 mps 684 mmHg 83%
    04:00 +8°C° 0.1 mm 1 mps 684 mmHg 84%
    05:00 +8°C° 0.4 mm 1 mps 684 mmHg 86%
    06:00 +8°C° 0.4 mm 1 mps 684 mmHg 87%
    07:00 +8°C° 0.4 mm 1 mps 684 mmHg 88%
    08:00 +9°C° 0.8 mm 1 mps 684 mmHg 87%
    09:00 +9°C° 0.8 mm 1 mps 684 mmHg 86%
    10:00 +9°C° 0.8 mm 2 mps 684 mmHg 85%
    11:00 +8°C° 1.2 mm 2 mps 684 mmHg 87%
    12:00 +7°C° 1.2 mm 2 mps 684 mmHg 90%
    13:00 +7°C° 1.2 mm 2 mps 684 mmHg 93%
    14:00 +7°C° 1 mm 2 mps 684 mmHg 92%
    15:00 +7°C° 1 mm 2 mps 685 mmHg 92%
    16:00 +7°C° 1 mm 2 mps 685 mmHg 91%
    17:00 +6°C° 1.3 mm 2 mps 685 mmHg 92%
    18:00 +6°C° 1.3 mm 2 mps 686 mmHg 92%
    19:00 +6°C° 1.3 mm 2 mps 686 mmHg 92%
    20:00 +5°C° 1.6 mm 2 mps 686 mmHg 93%
    21:00 +5°C° 1.6 mm 2 mps 686 mmHg 93%
    22:00 +5°C° 1.6 mm 2 mps 686 mmHg 93%
    23:00 +4°C° 0.6 mm 2 mps 686 mmHg 93%

    28 September, Friday

    Time Temperature Precipitation Wind Pressure Humidity
    00:00 +4°C° 0.6 mm 2 mps 686 mmHg 93%
    01:00 +4°C° 0.6 mm 2 mps 686 mmHg 93%
    02:00 +4°C° 0.8 mm 2 mps 686 mmHg 93%
    03:00 +4°C° 0.8 mm 2 mps 687 mmHg 94%
    04:00 +4°C° 0.8 mm 2 mps 687 mmHg 94%
    05:00 +4°C° 0.8 mm 3 mps 687 mmHg 94%
    06:00 +4°C° 0.8 mm 3 mps 687 mmHg 93%
    07:00 +4°C° 0.8 mm 3 mps 687 mmHg 93%
    08:00 +7°C° 0.6 mm 3 mps 687 mmHg 91%
    09:00 +7°C° 0.6 mm 4 mps 688 mmHg 90%
    10:00 +8°C° 0.6 mm 4 mps 688 mmHg 88%
    11:00 +8°C° 0.8 mm 4 mps 688 mmHg 87%
    12:00 +9°C° 0.8 mm 3 mps 688 mmHg 87%
    13:00 +10°C° 0.8 mm 3 mps 688 mmHg 86%
    14:00 +9°C° 1.3 mm 2 mps 688 mmHg 88%
    15:00 +9°C° 1.3 mm 2 mps 688 mmHg 90%
    16:00 +9°C° 1.3 mm 1 mps 689 mmHg 92%
    17:00 +9°C° 1.7 mm 1 mps 689 mmHg 93%
    18:00 +8°C° 1.7 mm 2 mps 689 mmHg 94%
    19:00 +8°C° 1.7 mm 2 mps 690 mmHg 95%
    20:00 +8°C° 1.2 mm 2 mps 690 mmHg 94%
    21:00 +8°C° 1.2 mm 3 mps 690 mmHg 93%
    22:00 +8°C° 1.2 mm 3 mps 690 mmHg 93%
    23:00 +8°C° 0.5 mm 3 mps 690 mmHg 92%
    Show more